Change the Weather History Date:

Friday, October 14, 2011

  Actual Average Record
Temperature  
Mean Temperature 44 °F -  
Max Temperature 52 °F 55 °F - ()
Min Temperature 35 °F 38 °F - ()
Degree Days  
Heating Degree Days 22    
Moisture  
Dew Point 35 °F    
Average Humidity 70    
Maximum Humidity 100    
Minimum Humidity 38    
Precipitation  
Precipitation 0.00 in 0.05 in - ()
Sea Level Pressure  
Sea Level Pressure 30.37 in    
Wind  
Wind Speed 6 mph ()    
Max Wind Speed 16 mph    
Max Gust Speed 23 mph    
Visibility 6.4 miles    
Events Rain    
T = Trace of Precipitation, MM = Missing Value Source: Averaged Metar Reports

Daily Weather History Graph

Daily Weather History Graph

Search for Another Location

Airport or City:

Trip Planner

Search our weather history database for the weather conditions in past years. The results will help you decide how hot, cold, wet, or windy it might be!

Date:

Astronomy

Oct. 14, 2011 Rise Set
Actual Time 6:49 AM CEST 5:48 PM CEST
Civil Twilight 6:19 AM CEST 6:19 PM CEST
Nautical Twilight 5:43 AM CEST 6:54 PM CEST
Astronomical Twilight 5:07 AM CEST 7:30 PM CEST
Moon 6:35 PM CEST (10/14) 9:14 AM CEST (10/14)
Length of Visible Light 12h 00m
Length of Day
10h 58m
Waning Gibbous, 95% of the Moon is Illuminated
Oct 14
Waning Gibbous
Oct 20
Last Quarter
Oct 26
New
Nov 2
First Quarter
Nov 10
Full

Hourly Weather History & Observations

Time (CEST) Temp. Windchill Dew Point Humidity Pressure Visibility Wind Dir Wind Speed Gust Speed Precip Events Conditions
12:45 AM 39.2 °F - 37.4 °F 93% 30.27 in - Calm Calm - N/A   Clear
1:45 AM 37.4 °F - 35.6 °F 93% 30.27 in - Calm Calm - N/A   Clear
2:00 AM 37 °F - 36 °F 94% 30.30 in 6 mi Calm Calm - -   Partly Cloudy
2:45 AM 35.6 °F - 35.6 °F 100% 30.27 in - NW 1.2 mph - N/A   Clear
3:45 AM 35.6 °F - 33.8 °F 93% 30.27 in - North 2.3 mph - N/A   Clear
4:45 AM 37.4 °F - 35.6 °F 93% 30.27 in - NW 2.3 mph - N/A   Clear
5:45 AM 37.4 °F 34.9 °F 35.6 °F 93% 30.30 in 6.2 mi NW 3.5 mph - N/A   Mostly Cloudy
6:15 AM 37.4 °F 33.8 °F 35.6 °F 93% 30.30 in 6.2 mi NW 4.6 mph - N/A   Mostly Cloudy
6:45 AM 39.2 °F 37.0 °F 35.6 °F 87% 30.30 in 6.2 mi NNW 3.5 mph - N/A   Mostly Cloudy
7:00 AM - - - N/A% - 6.2 mi NW 5.8 mph - N/A   Mostly Cloudy
7:15 AM 41.0 °F 38.0 °F 37.4 °F 87% 30.30 in 6.2 mi North 4.6 mph - N/A   Mostly Cloudy
7:45 AM 41.0 °F 37.1 °F 37.4 °F 87% 30.33 in 6.2 mi NNW 5.8 mph - N/A   Mostly Cloudy
8:00 AM 41 °F - 37 °F 80% 30.33 in 11 mi NNW 4.5 mph - -   Partly Cloudy
8:15 AM 42.8 °F 39.3 °F 37.4 °F 81% 30.33 in 6.2 mi North 5.8 mph - N/A Rain Light Rain
8:45 AM 44.6 °F 40.7 °F 39.2 °F 81% 30.33 in 6.2 mi North 6.9 mph - N/A   Mostly Cloudy
9:15 AM 46.4 °F 42.9 °F 39.2 °F 76% 30.36 in - North 6.9 mph - N/A   Clear
9:45 AM 46.4 °F 40.7 °F 37.4 °F 71% 30.36 in 6.2 mi NNE 12.7 mph - N/A   Mostly Cloudy
10:00 AM - - - N/A% - 6.2 mi North 10.4 mph - N/A   Scattered Clouds
10:15 AM 48.2 °F - 37.4 °F 66% 30.36 in 6.2 mi NNE 12.7 mph - N/A   Scattered Clouds
10:45 AM 48.2 °F - 35.6 °F 62% 30.36 in 6.2 mi NNE 13.8 mph - N/A   Partly Cloudy
11:15 AM 50.0 °F - 35.6 °F 58% 30.39 in 6.2 mi NNE 11.5 mph - N/A   Scattered Clouds
11:45 AM 50.0 °F - 33.8 °F 54% 30.39 in 6.2 mi North 9.2 mph - N/A   Mostly Cloudy
12:15 PM 50.0 °F - 32.0 °F 50% 30.39 in 6.2 mi North 10.4 mph - N/A   Scattered Clouds
12:45 PM 51.8 °F - 33.8 °F 50% 30.39 in 6.2 mi NNE 6.9 mph - N/A   Scattered Clouds
1:00 PM - - - N/A% - 6.2 mi NNE 11.5 mph 23.0 mph N/A   Scattered Clouds
1:15 PM 51.8 °F - 32.0 °F 47% 30.39 in 6.2 mi NNE 10.4 mph - N/A   Scattered Clouds
1:45 PM 51.8 °F - 33.8 °F 50% 30.36 in 6.2 mi North 12.7 mph - N/A   Scattered Clouds
2:00 PM 52 °F - 34 °F 38% 30.38 in 22 mi North 13.4 mph - -   Partly Cloudy
2:15 PM 50.0 °F - 33.8 °F 54% 30.39 in 6.2 mi NNE 16.1 mph - N/A   Mostly Cloudy
2:45 PM 50.0 °F - 35.6 °F 58% 30.39 in 6.2 mi NNE 10.4 mph - N/A   Mostly Cloudy
3:15 PM 50.0 °F - 33.8 °F 54% 30.39 in 6.2 mi North 12.7 mph - N/A   Scattered Clouds
3:45 PM 50.0 °F - 33.8 °F 54% 30.39 in 6.2 mi North 11.5 mph - N/A   Scattered Clouds
4:15 PM 50.0 °F - 32.0 °F 50% 30.39 in 6.2 mi NNE 15.0 mph - N/A   Partly Cloudy
4:45 PM 50.0 °F - 32.0 °F 50% 30.39 in 6.2 mi NNE 13.8 mph - N/A   Partly Cloudy
5:15 PM 48.2 °F - 32.0 °F 54% 30.39 in 6.2 mi NNE 13.8 mph - N/A   Partly Cloudy
5:45 PM 46.4 °F 40.4 °F 32.0 °F 57% 30.42 in - NNE 13.8 mph - N/A   Clear
6:15 PM 44.6 °F 39.7 °F 32.0 °F 61% 30.42 in - NNE 9.2 mph - N/A   Clear
6:45 PM 44.6 °F 39.7 °F 32.0 °F 61% 30.45 in - NNE 9.2 mph - N/A   Clear
7:15 PM 42.8 °F 37.5 °F 32.0 °F 66% 30.45 in - NNE 9.2 mph - N/A   Clear
7:45 PM 42.8 °F 35.1 °F 33.8 °F 70% 30.45 in - NNE 16.1 mph - N/A   Clear
8:00 PM 43 °F - 33 °F 59% 30.45 in 25 mi NNE 15.7 mph - -   Partly Cloudy
8:15 PM 42.8 °F 36.6 °F 32.0 °F 66% 30.45 in - NNE 11.5 mph - N/A   Clear
8:45 PM 41.0 °F 35.2 °F 33.8 °F 76% 30.45 in - NE 9.2 mph - N/A   Clear
9:15 PM 42.8 °F 37.5 °F 33.8 °F 70% 30.45 in - North 9.2 mph - N/A   Clear
9:45 PM 41.0 °F 35.2 °F 33.8 °F 76% 30.48 in - NNE 9.2 mph - N/A   Clear
10:45 PM 41.0 °F 35.8 °F 33.8 °F 76% 30.48 in - NNE 8.1 mph - N/A   Clear
11:45 PM 41.0 °F 35.2 °F 33.8 °F 76% 30.48 in - North 9.2 mph - N/A   Clear